Time,TemperatureF,DewpointF,PressureIn,WindDirection,WindDirectionDegrees,WindSpeedMPH,WindSpeedGustMPH,Humidity,HourlyPrecipIn,Conditions,Clouds,dailyrainin,SoftwareType,DateUTC
2013-09-22 00:01:00,59.8,50.4,29.79,ESE,122,2.0,2.0,71,0.00,,,0.00,WeatherCatV1.21B27,2013-09-22 05:01:00,
2013-09-22 00:06:00,59.8,50.4,29.79,ESE,122,1.0,4.0,71,0.00,,,0.00,WeatherCatV1.21B27,2013-09-22 05:06:00,
2013-09-22 00:11:00,59.8,50.4,29.79,ESE,110,2.0,2.0,71,0.00,,,0.00,WeatherCatV1.21B27,2013-09-22 05:11:00,
2013-09-22 00:16:00,59.7,50.3,29.79,SE,133,2.0,5.0,71,0.00,,,0.00,WeatherCatV1.21B27,2013-09-22 05:16:00,
2013-09-22 00:21:00,59.8,50.4,29.79,SE,133,4.0,8.0,71,0.00,,,0.00,WeatherCatV1.21B27,2013-09-22 05:21:00,
2013-09-22 00:26:00,59.8,50.4,29.78,SSE,148,2.0,7.0,71,0.00,,,0.00,WeatherCatV1.21B27,2013-09-22 05:26:00,
2013-09-22 00:31:00,59.7,50.3,29.78,SE,126,0.0,3.0,71,0.00,,,0.00,WeatherCatV1.21B27,2013-09-22 05:31:00,
2013-09-22 00:36:00,59.5,50.5,29.78,SE,125,1.0,8.0,72,0.00,,,0.00,WeatherCatV1.21B27,2013-09-22 05:36:00,
2013-09-22 00:41:00,59.4,50.4,29.78,SE,145,1.0,7.0,72,0.00,,,0.00,WeatherCatV1.21B27,2013-09-22 05:41:00,
2013-09-22 00:46:00,59.3,50.3,29.78,SE,134,2.0,2.0,72,0.00,,,0.00,WeatherCatV1.21B27,2013-09-22 05:46:00,
2013-09-22 00:51:00,59.2,50.5,29.78,ESE,118,0.0,4.0,73,0.00,,,0.00,WeatherCatV1.21B27,2013-09-22 05:51:00,
2013-09-22 00:56:00,59.0,50.3,29.78,ESE,122,0.0,3.0,73,0.00,,,0.00,WeatherCatV1.21B27,2013-09-22 05:56:00,
2013-09-22 01:01:00,58.8,50.5,29.78,ESE,122,1.0,3.0,74,0.00,,,0.00,WeatherCatV1.21B27,2013-09-22 06:01:00,
2013-09-22 01:07:00,58.7,50.4,29.78,SE,124,0.0,5.0,74,0.00,,,0.00,WeatherCatV1.21B27,2013-09-22 06:07:00,
2013-09-22 01:12:00,58.6,50.3,29.78,ESE,115,0.0,4.0,74,0.00,,,0.00,WeatherCatV1.21B27,2013-09-22 06:12:00,
2013-09-22 01:17:00,58.6,50.3,29.78,ESE,115,0.0,2.0,74,0.00,,,0.00,WeatherCatV1.21B27,2013-09-22 06:17:00,
2013-09-22 01:22:00,58.5,50.6,29.78,ESE,115,1.0,1.0,75,0.00,,,0.00,WeatherCatV1.21B27,2013-09-22 06:22:00,
2013-09-22 01:27:00,58.5,50.6,29.78,South,191,0.0,2.0,75,0.00,,,0.00,WeatherCatV1.21B27,2013-09-22 06:27:00,
2013-09-22 01:32:00,58.5,50.6,29.78,SE,124,0.0,2.0,75,0.00,,,0.00,WeatherCatV1.21B27,2013-09-22 06:32:00,
2013-09-22 01:37:00,58.6,50.7,29.78,SE,124,0.0,2.0,75,0.00,,,0.00,WeatherCatV1.21B27,2013-09-22 06:37:00,
2013-09-22 01:42:00,58.4,50.5,29.78,ESE,123,2.0,3.0,75,0.00,,,0.00,WeatherCatV1.21B27,2013-09-22 06:42:00,
2013-09-22 01:47:00,58.4,50.5,29.78,SSE,159,2.0,2.0,75,0.00,,,0.00,WeatherCatV1.21B27,2013-09-22 06:47:00,
2013-09-22 01:51:00,58.2,50.3,29.77,SSE,148,0.0,1.0,75,0.00,,,0.00,WeatherCatV1.21B27,2013-09-22 06:51:00,
2013-09-22 01:56:00,58.1,50.6,29.77,SE,129,2.0,3.0,76,0.00,,,0.00,WeatherCatV1.21B27,2013-09-22 06:56:00,
2013-09-22 02:01:00,58.0,50.5,29.77,ESE,114,0.0,5.0,76,0.00,,,0.00,WeatherCatV1.21B27,2013-09-22 07:01:00,
2013-09-22 02:06:00,57.8,50.3,29.77,ESE,114,2.0,4.0,76,0.00,,,0.00,WeatherCatV1.21B27,2013-09-22 07:06:00,
2013-09-22 02:11:00,57.8,50.3,29.77,ESE,112,2.0,4.0,76,0.00,,,0.00,WeatherCatV1.21B27,2013-09-22 07:11:00,
2013-09-22 02:16:00,57.8,50.6,29.77,ESE,106,0.0,3.0,77,0.00,,,0.00,WeatherCatV1.21B27,2013-09-22 07:16:00,
2013-09-22 02:22:00,57.8,50.6,29.77,SSE,149,0.0,4.0,77,0.00,,,0.00,WeatherCatV1.21B27,2013-09-22 07:22:00,
2013-09-22 02:27:00,57.8,50.6,29.77,SE,130,0.0,4.0,77,0.00,,,0.00,WeatherCatV1.21B27,2013-09-22 07:27:00,
2013-09-22 02:31:00,57.7,50.5,29.77,SE,128,2.0,5.0,77,0.00,,,0.00,WeatherCatV1.21B27,2013-09-22 07:31:00,
2013-09-22 02:36:00,57.6,50.8,29.77,East,101,1.0,1.0,78,0.00,,,0.00,WeatherCatV1.21B27,2013-09-22 07:36:00,
2013-09-22 02:41:00,57.5,50.7,29.77,East,101,0.0,0.0,78,0.00,,,0.00,WeatherCatV1.21B27,2013-09-22 07:41:00,
2013-09-22 02:46:00,57.4,50.6,29.77,SE,131,0.0,4.0,78,0.00,,,0.00,WeatherCatV1.21B27,2013-09-22 07:46:00,
2013-09-22 02:51:00,57.4,50.6,29.76,SE,131,0.0,1.0,78,0.00,,,0.00,WeatherCatV1.21B27,2013-09-22 07:51:00,
2013-09-22 02:56:00,57.2,50.7,29.76,SE,131,0.0,2.0,79,0.00,,,0.00,WeatherCatV1.21B27,2013-09-22 07:56:00,
2013-09-22 03:01:00,57.2,50.7,29.76,SE,131,0.0,2.0,79,0.00,,,0.00,WeatherCatV1.21B27,2013-09-22 08:01:00,
2013-09-22 03:06:00,57.2,50.7,29.76,SE,131,0.0,0.0,79,0.00,,,0.00,WeatherCatV1.21B27,2013-09-22 08:06:00,
2013-09-22 03:11:00,57.1,51.0,29.76,ESE,118,0.0,1.0,80,0.00,,,0.00,WeatherCatV1.21B27,2013-09-22 08:11:00,
2013-09-22 03:16:00,56.9,50.8,29.76,ESE,118,0.0,2.0,80,0.00,,,0.00,WeatherCatV1.21B27,2013-09-22 08:16:00,
2013-09-22 03:21:00,56.8,50.7,29.76,ESE,118,0.0,2.0,80,0.00,,,0.00,WeatherCatV1.21B27,2013-09-22 08:21:00,
2013-09-22 03:26:00,56.7,50.9,29.76,ESE,118,0.0,2.0,81,0.00,,,0.00,WeatherCatV1.21B27,2013-09-22 08:26:00,
2013-09-22 03:31:00,56.6,50.8,29.75,ESE,118,0.0,2.0,81,0.00,,,0.00,WeatherCatV1.21B27,2013-09-22 08:31:00,
2013-09-22 03:36:00,56.5,50.7,29.75,ESE,118,0.0,1.0,81,0.00,,,0.00,WeatherCatV1.21B27,2013-09-22 08:36:00,
2013-09-22 03:41:00,56.4,51.0,29.75,ESE,118,0.0,1.0,82,0.00,,,0.00,WeatherCatV1.21B27,2013-09-22 08:41:00,
2013-09-22 03:46:00,56.2,50.8,29.75,SE,139,1.0,6.0,82,0.00,,,0.00,WeatherCatV1.21B27,2013-09-22 08:46:00,
2013-09-22 03:51:00,56.2,50.8,29.75,SE,125,0.0,2.0,82,0.00,,,0.00,WeatherCatV1.21B27,2013-09-22 08:51:00,
2013-09-22 03:56:00,56.2,50.8,29.75,SE,125,3.0,4.0,82,0.00,,,0.00,WeatherCatV1.21B27,2013-09-22 08:56:00,
2013-09-22 04:01:00,56.1,51.0,29.75,SE,125,0.0,2.0,83,0.00,,,0.00,WeatherCatV1.21B27,2013-09-22 09:01:00,
2013-09-22 04:06:00,56.1,51.0,29.75,SE,125,3.0,3.0,83,0.00,,,0.00,WeatherCatV1.21B27,2013-09-22 09:06:00,
2013-09-22 04:11:00,56.2,51.1,29.75,SE,126,0.0,4.0,83,0.00,,,0.00,WeatherCatV1.21B27,2013-09-22 09:11:00,
2013-09-22 04:16:00,56.2,51.1,29.75,SE,126,0.0,2.0,83,0.00,,,0.00,WeatherCatV1.21B27,2013-09-22 09:16:00,
2013-09-22 04:21:00,56.2,51.1,29.75,SE,125,1.0,2.0,83,0.00,,,0.00,WeatherCatV1.21B27,2013-09-22 09:21:00,
2013-09-22 04:26:00,56.3,51.2,29.75,SE,142,2.0,4.0,83,0.00,,,0.00,WeatherCatV1.21B27,2013-09-22 09:26:00,
2013-09-22 04:31:00,56.3,51.2,29.74,SE,141,0.0,3.0,83,0.00,,,0.00,WeatherCatV1.21B27,2013-09-22 09:31:00,
2013-09-22 04:36:00,56.3,51.2,29.74,SE,141,0.0,1.0,83,0.00,,,0.00,WeatherCatV1.21B27,2013-09-22 09:36:00,
2013-09-22 04:41:00,56.3,51.2,29.74,SE,141,0.0,1.0,83,0.00,,,0.00,WeatherCatV1.21B27,2013-09-22 09:41:00,
2013-09-22 04:46:00,56.1,51.3,29.74,SE,129,0.0,8.0,84,0.00,,,0.00,WeatherCatV1.21B27,2013-09-22 09:46:00,
2013-09-22 04:51:00,56.0,51.2,29.74,ESE,122,1.0,2.0,84,0.00,,,0.00,WeatherCatV1.21B27,2013-09-22 09:51:00,
2013-09-22 04:56:00,56.0,51.2,29.74,ESE,122,2.0,4.0,84,0.00,,,0.00,WeatherCatV1.21B27,2013-09-22 09:56:00,
2013-09-22 05:01:00,55.9,51.1,29.74,SE,137,2.0,3.0,84,0.00,,,0.00,WeatherCatV1.21B27,2013-09-22 10:01:00,
2013-09-22 05:06:00,55.8,51.0,29.74,SE,133,1.0,1.0,84,0.00,,,0.00,WeatherCatV1.21B27,2013-09-22 10:06:00,
2013-09-22 05:11:00,55.7,50.9,29.74,SE,129,1.0,2.0,84,0.00,,,0.00,WeatherCatV1.21B27,2013-09-22 10:11:00,
2013-09-22 05:16:00,55.5,51.1,29.74,SE,129,0.0,1.0,85,0.00,,,0.00,WeatherCatV1.21B27,2013-09-22 10:16:00,
2013-09-22 05:21:00,55.4,51.0,29.74,SE,129,1.0,2.0,85,0.00,,,0.00,WeatherCatV1.21B27,2013-09-22 10:21:00,
2013-09-22 05:26:00,55.3,50.9,29.74,SE,129,0.0,1.0,85,0.00,,,0.00,WeatherCatV1.21B27,2013-09-22 10:26:00,
2013-09-22 05:31:00,55.2,50.8,29.74,SE,135,0.0,4.0,85,0.00,,,0.00,WeatherCatV1.21B27,2013-09-22 10:31:00,
2013-09-22 05:36:00,55.2,51.1,29.74,ESE,107,0.0,7.0,86,0.00,,,0.00,WeatherCatV1.21B27,2013-09-22 10:36:00,
2013-09-22 05:41:00,55.2,51.1,29.74,ESE,121,1.0,7.0,86,0.00,,,0.00,WeatherCatV1.21B27,2013-09-22 10:41:00,
2013-09-22 05:46:00,55.2,51.1,29.74,ESE,121,0.0,1.0,86,0.00,,,0.00,WeatherCatV1.21B27,2013-09-22 10:46:00,
2013-09-22 05:51:00,55.1,51.0,29.74,ESE,121,0.0,3.0,86,0.00,,,0.00,WeatherCatV1.21B27,2013-09-22 10:51:00,
2013-09-22 05:56:00,55.0,50.9,29.74,ESE,121,0.0,2.0,86,0.00,,,0.00,WeatherCatV1.21B27,2013-09-22 10:56:00,
2013-09-22 06:01:00,54.9,50.8,29.74,SE,146,0.0,5.0,86,0.00,,,0.00,WeatherCatV1.21B27,2013-09-22 11:01:00,
2013-09-22 06:06:00,54.8,51.0,29.74,SE,145,0.0,1.0,87,0.00,,,0.00,WeatherCatV1.21B27,2013-09-22 11:06:00,
2013-09-22 06:11:00,54.7,50.9,29.74,SE,145,2.0,4.0,87,0.00,,,0.00,WeatherCatV1.21B27,2013-09-22 11:11:00,
2013-09-22 06:16:00,54.6,50.8,29.74,SE,145,1.0,2.0,87,0.00,,,0.00,WeatherCatV1.21B27,2013-09-22 11:16:00,
2013-09-22 06:21:00,54.5,50.7,29.74,SE,145,0.0,1.0,87,0.00,,,0.00,WeatherCatV1.21B27,2013-09-22 11:21:00,
2013-09-22 06:26:00,54.3,50.8,29.74,SE,145,0.0,3.0,88,0.00,,,0.00,WeatherCatV1.21B27,2013-09-22 11:26:00,
2013-09-22 06:31:00,54.3,50.8,29.73,SE,145,0.0,2.0,88,0.00,,,0.00,WeatherCatV1.21B27,2013-09-22 11:31:00,
2013-09-22 06:36:00,54.3,50.8,29.74,SE,145,0.0,3.0,88,0.00,,,0.00,WeatherCatV1.21B27,2013-09-22 11:36:00,
2013-09-22 06:41:00,54.2,50.7,29.73,SE,145,0.0,1.0,88,0.00,,,0.00,WeatherCatV1.21B27,2013-09-22 11:41:00,
2013-09-22 06:46:00,54.1,50.6,29.73,SE,145,0.0,1.0,88,0.00,,,0.00,WeatherCatV1.21B27,2013-09-22 11:46:00,
2013-09-22 06:52:00,54.1,50.6,29.73,SE,145,0.0,1.0,88,0.00,,,0.00,WeatherCatV1.21B27,2013-09-22 11:52:00,
2013-09-22 06:57:00,54.1,50.9,29.73,SE,145,0.0,2.0,89,0.00,,,0.00,WeatherCatV1.21B27,2013-09-22 11:57:00,
2013-09-22 07:02:00,54.1,50.9,29.74,SE,145,1.0,3.0,89,0.00,,,0.00,WeatherCatV1.21B27,2013-09-22 12:02:00,
2013-09-22 07:07:00,54.1,50.9,29.74,SE,145,0.0,2.0,89,0.00,,,0.00,WeatherCatV1.21B27,2013-09-22 12:07:00,
2013-09-22 07:12:00,54.2,51.0,29.74,SE,135,2.0,2.0,89,0.00,,,0.00,WeatherCatV1.21B27,2013-09-22 12:12:00,
2013-09-22 07:17:00,54.2,51.0,29.74,SE,135,0.0,4.0,89,0.00,,,0.00,WeatherCatV1.21B27,2013-09-22 12:17:00,
2013-09-22 07:22:00,54.3,51.1,29.74,SE,135,0.0,4.0,89,0.00,,,0.00,WeatherCatV1.21B27,2013-09-22 12:22:00,
2013-09-22 07:27:00,54.4,51.2,29.74,SE,127,1.0,5.0,89,0.00,,,0.00,WeatherCatV1.21B27,2013-09-22 12:27:00,
2013-09-22 07:32:00,54.4,50.9,29.74,SE,127,0.0,4.0,88,0.00,,,0.00,WeatherCatV1.21B27,2013-09-22 12:32:00,
2013-09-22 07:37:00,54.5,51.3,29.74,SE,127,1.0,4.0,89,0.00,,,0.00,WeatherCatV1.21B27,2013-09-22 12:37:00,
2013-09-22 07:42:00,54.7,51.2,29.74,SE,126,0.0,4.0,88,0.00,,,0.00,WeatherCatV1.21B27,2013-09-22 12:42:00,
2013-09-22 07:47:00,55.0,51.5,29.74,SE,126,3.0,5.0,88,0.00,,,0.00,WeatherCatV1.21B27,2013-09-22 12:47:00,
2013-09-22 07:52:00,55.3,51.8,29.74,SE,126,1.0,4.0,88,0.00,,,0.00,WeatherCatV1.21B27,2013-09-22 12:52:00,
2013-09-22 07:57:00,55.6,51.8,29.74,SE,137,3.0,5.0,87,0.00,,,0.00,WeatherCatV1.21B27,2013-09-22 12:57:00,
2013-09-22 08:02:00,55.9,52.1,29.74,SSE,147,6.0,8.0,87,0.00,,,0.00,WeatherCatV1.21B27,2013-09-22 13:02:00,
2013-09-22 08:07:00,56.2,52.1,29.74,SE,126,3.0,5.0,86,0.00,,,0.00,WeatherCatV1.21B27,2013-09-22 13:07:00,
2013-09-22 08:12:00,56.6,52.5,29.74,SE,138,1.0,6.0,86,0.00,,,0.00,WeatherCatV1.21B27,2013-09-22 13:12:00,
2013-09-22 08:17:00,57.0,52.5,29.74,ESE,120,0.0,1.0,85,0.00,,,0.00,WeatherCatV1.21B27,2013-09-22 13:17:00,
2013-09-22 08:22:00,57.3,52.8,29.74,SE,133,0.0,1.0,85,0.00,,,0.00,WeatherCatV1.21B27,2013-09-22 13:22:00,
2013-09-22 08:27:00,57.7,52.9,29.74,SE,133,2.0,3.0,84,0.00,,,0.00,WeatherCatV1.21B27,2013-09-22 13:27:00,
2013-09-22 08:32:00,58.2,53.1,29.74,SE,135,3.0,5.0,83,0.00,,,0.00,WeatherCatV1.21B27,2013-09-22 13:32:00,
2013-09-22 08:37:00,58.7,53.2,29.74,SE,138,0.0,7.0,82,0.00,,,0.00,WeatherCatV1.21B27,2013-09-22 13:37:00,
2013-09-22 08:42:00,59.1,53.6,29.74,ESE,108,0.0,4.0,82,0.00,,,0.00,WeatherCatV1.21B27,2013-09-22 13:42:00,
2013-09-22 08:47:00,59.6,53.8,29.74,SE,131,4.0,4.0,81,0.00,,,0.00,WeatherCatV1.21B27,2013-09-22 13:47:00,
2013-09-22 08:52:00,60.0,54.2,29.74,ESE,117,7.0,10.0,81,0.00,,,0.00,WeatherCatV1.21B27,2013-09-22 13:52:00,
2013-09-22 08:57:00,60.5,54.3,29.74,SE,131,3.0,5.0,80,0.00,,,0.00,WeatherCatV1.21B27,2013-09-22 13:57:00,
2013-09-22 09:02:00,61.1,54.2,29.73,ESE,119,0.0,9.0,78,0.00,,,0.00,WeatherCatV1.21B27,2013-09-22 14:02:00,
2013-09-22 09:07:00,61.9,54.6,29.74,SE,128,4.0,7.0,77,0.00,,,0.00,WeatherCatV1.21B27,2013-09-22 14:07:00,
2013-09-22 09:12:00,62.9,54.8,29.73,SE,127,4.0,7.0,75,0.00,,,0.00,WeatherCatV1.21B27,2013-09-22 14:12:00,
2013-09-22 09:17:00,63.7,54.9,29.73,SE,131,0.0,4.0,73,0.00,,,0.00,WeatherCatV1.21B27,2013-09-22 14:17:00,
2013-09-22 09:22:00,64.5,55.3,29.73,ESE,122,1.0,10.0,72,0.00,,,0.00,WeatherCatV1.21B27,2013-09-22 14:22:00,
2013-09-22 09:27:00,65.2,55.2,29.73,SE,126,2.0,9.0,70,0.00,,,0.00,WeatherCatV1.21B27,2013-09-22 14:27:00,
2013-09-22 09:32:00,65.8,55.3,29.73,SE,124,1.0,4.0,69,0.00,,,0.00,WeatherCatV1.21B27,2013-09-22 14:32:00,
2013-09-22 09:37:00,66.5,55.2,29.73,SE,140,2.0,8.0,67,0.00,,,0.00,WeatherCatV1.21B27,2013-09-22 14:37:00,
2013-09-22 09:42:00,67.1,55.3,29.73,ESE,110,3.0,3.0,66,0.00,,,0.00,WeatherCatV1.21B27,2013-09-22 14:42:00,
2013-09-22 09:46:00,67.6,55.4,29.73,SSE,155,2.0,6.0,65,0.00,,,0.00,WeatherCatV1.21B27,2013-09-22 14:46:00,
2013-09-22 09:51:00,68.0,54.9,29.73,SE,124,2.0,8.0,63,0.00,,,0.00,WeatherCatV1.21B27,2013-09-22 14:51:00,
2013-09-22 09:56:00,68.6,55.0,29.73,ESE,120,3.0,9.0,62,0.00,,,0.00,WeatherCatV1.21B27,2013-09-22 14:56:00,
2013-09-22 10:02:00,69.2,55.2,29.73,ESE,110,5.0,5.0,61,0.00,,,0.00,WeatherCatV1.21B27,2013-09-22 15:02:00,
2013-09-22 10:07:00,69.8,54.8,29.73,SE,127,4.0,10.0,59,0.00,,,0.00,WeatherCatV1.21B27,2013-09-22 15:07:00,
2013-09-22 10:12:00,70.3,54.8,29.73,SE,132,0.0,8.0,58,0.00,,,0.00,WeatherCatV1.21B27,2013-09-22 15:12:00,
2013-09-22 10:17:00,70.9,55.4,29.73,East,87,2.0,7.0,58,0.00,,,0.00,WeatherCatV1.21B27,2013-09-22 15:17:00,
2013-09-22 10:22:00,71.4,54.9,29.73,ESE,108,7.0,8.0,56,0.00,,,0.00,WeatherCatV1.21B27,2013-09-22 15:22:00,
2013-09-22 10:27:00,71.9,54.8,29.73,SSE,156,4.0,4.0,55,0.00,,,0.00,WeatherCatV1.21B27,2013-09-22 15:27:00,
2013-09-22 10:32:00,72.4,54.8,29.73,SW,230,5.0,7.0,54,0.00,,,0.00,WeatherCatV1.21B27,2013-09-22 15:32:00,
2013-09-22 10:37:00,72.7,54.6,29.73,ESE,120,2.0,5.0,53,0.00,,,0.00,WeatherCatV1.21B27,2013-09-22 15:37:00,
2013-09-22 10:42:00,73.2,54.5,29.73,ESE,106,5.0,11.0,52,0.00,,,0.00,WeatherCatV1.21B27,2013-09-22 15:42:00,
2013-09-22 10:47:00,73.6,54.3,29.73,South,180,1.0,6.0,51,0.00,,,0.00,WeatherCatV1.21B27,2013-09-22 15:47:00,
2013-09-22 10:52:00,74.1,54.8,29.73,ESE,113,9.0,10.0,51,0.00,,,0.00,WeatherCatV1.21B27,2013-09-22 15:52:00,
2013-09-22 10:56:00,74.5,54.6,29.73,SSW,203,3.0,8.0,50,0.00,,,0.00,WeatherCatV1.21B27,2013-09-22 15:56:00,
2013-09-22 11:02:00,74.8,54.3,29.73,South,181,6.0,12.0,49,0.00,,,0.00,WeatherCatV1.21B27,2013-09-22 16:02:00,
2013-09-22 11:07:00,75.0,54.5,29.73,SSE,153,6.0,14.0,49,0.00,,,0.00,WeatherCatV1.21B27,2013-09-22 16:07:00,
2013-09-22 11:12:00,75.1,55.2,29.72,ESE,103,3.0,9.0,50,0.00,,,0.00,WeatherCatV1.21B27,2013-09-22 16:12:00,
2013-09-22 11:17:00,75.5,54.4,29.72,ESE,120,5.0,7.0,48,0.00,,,0.00,WeatherCatV1.21B27,2013-09-22 16:17:00,
2013-09-22 11:22:00,76.0,55.4,29.72,ESE,121,3.0,8.0,49,0.00,,,0.00,WeatherCatV1.21B27,2013-09-22 16:22:00,
2013-09-22 11:27:00,76.6,54.8,29.72,ESE,122,4.0,9.0,47,0.00,,,0.00,WeatherCatV1.21B27,2013-09-22 16:27:00,
2013-09-22 11:32:00,76.7,54.3,29.72,SSE,147,4.0,10.0,46,0.00,,,0.00,WeatherCatV1.21B27,2013-09-22 16:32:00,
2013-09-22 11:37:00,76.7,54.9,29.71,ESE,121,2.0,6.0,47,0.00,,,0.00,WeatherCatV1.21B27,2013-09-22 16:37:00,
2013-09-22 11:42:00,77.4,55.6,29.71,ESE,112,2.0,9.0,47,0.00,,,0.00,WeatherCatV1.21B27,2013-09-22 16:42:00,
2013-09-22 11:47:00,78.0,56.1,29.71,ESE,110,2.0,7.0,47,0.00,,,0.00,WeatherCatV1.21B27,2013-09-22 16:47:00,
2013-09-22 11:52:00,78.8,56.2,29.71,SSE,160,0.0,6.0,46,0.00,,,0.00,WeatherCatV1.21B27,2013-09-22 16:52:00,
2013-09-22 11:57:00,79.1,55.3,29.71,SE,125,1.0,7.0,44,0.00,,,0.00,WeatherCatV1.21B27,2013-09-22 16:57:00,
2013-09-22 12:02:00,79.3,56.1,29.71,SE,129,5.0,5.0,45,0.00,,,0.00,WeatherCatV1.21B27,2013-09-22 17:02:00,
2013-09-22 12:07:00,79.6,54.5,29.71,SSW,201,8.0,12.0,42,0.00,,,0.00,WeatherCatV1.21B27,2013-09-22 17:07:00,
2013-09-22 12:12:00,79.7,55.2,29.71,SE,140,3.0,9.0,43,0.00,,,0.00,WeatherCatV1.21B27,2013-09-22 17:12:00,
2013-09-22 12:17:00,80.2,55.7,29.71,ESE,118,4.0,10.0,43,0.00,,,0.00,WeatherCatV1.21B27,2013-09-22 17:17:00,
2013-09-22 12:22:00,80.4,55.2,29.70,SSE,164,1.0,19.0,42,0.00,,,0.00,WeatherCatV1.21B27,2013-09-22 17:22:00,
2013-09-22 12:27:00,80.5,55.9,29.70,SSE,164,1.0,7.0,43,0.00,,,0.00,WeatherCatV1.21B27,2013-09-22 17:27:00,
2013-09-22 12:32:00,80.7,54.8,29.70,SSW,208,5.0,14.0,41,0.00,,,0.00,WeatherCatV1.21B27,2013-09-22 17:32:00,
2013-09-22 12:37:00,80.4,55.2,29.70,South,169,3.0,9.0,42,0.00,,,0.00,WeatherCatV1.21B27,2013-09-22 17:37:00,
2013-09-22 12:42:00,80.9,55.0,29.69,ESE,118,7.0,12.0,41,0.00,,,0.00,WeatherCatV1.21B27,2013-09-22 17:42:00,
2013-09-22 12:47:00,81.1,55.1,29.69,SE,134,5.0,12.0,41,0.00,,,0.00,WeatherCatV1.21B27,2013-09-22 17:47:00,
2013-09-22 12:52:00,81.5,55.5,29.69,SE,126,4.0,10.0,41,0.00,,,0.00,WeatherCatV1.21B27,2013-09-22 17:52:00,
2013-09-22 12:57:00,81.9,56.5,29.69,SE,124,5.0,10.0,42,0.00,,,0.00,WeatherCatV1.21B27,2013-09-22 17:57:00,
2013-09-22 13:02:00,81.9,55.9,29.69,South,191,5.0,10.0,41,0.00,,,0.00,WeatherCatV1.21B27,2013-09-22 18:02:00,
2013-09-22 13:07:00,81.8,56.4,29.69,ESE,120,3.0,7.0,42,0.00,,,0.00,WeatherCatV1.21B27,2013-09-22 18:07:00,
2013-09-22 13:12:00,82.0,56.0,29.69,SE,137,7.0,11.0,41,0.00,,,0.00,WeatherCatV1.21B27,2013-09-22 18:12:00,
2013-09-22 13:17:00,82.2,56.1,29.68,ESE,114,5.0,6.0,41,0.00,,,0.00,WeatherCatV1.21B27,2013-09-22 18:17:00,
2013-09-22 13:22:00,82.4,55.6,29.68,SE,127,1.0,7.0,40,0.00,,,0.00,WeatherCatV1.21B27,2013-09-22 18:22:00,
2013-09-22 13:27:00,82.7,55.9,29.68,SE,141,5.0,8.0,40,0.00,,,0.00,WeatherCatV1.21B27,2013-09-22 18:27:00,
2013-09-22 13:32:00,82.7,55.2,29.68,East,99,6.0,13.0,39,0.00,,,0.00,WeatherCatV1.21B27,2013-09-22 18:32:00,
2013-09-22 13:37:00,82.5,54.3,29.68,SE,146,5.0,13.0,38,0.00,,,0.00,WeatherCatV1.21B27,2013-09-22 18:37:00,
2013-09-22 13:42:00,82.6,55.8,29.67,SW,215,9.0,11.0,40,0.00,,,0.00,WeatherCatV1.21B27,2013-09-22 18:42:00,
2013-09-22 13:47:00,82.9,54.7,29.67,SE,124,3.0,10.0,38,0.00,,,0.00,WeatherCatV1.21B27,2013-09-22 18:47:00,
2013-09-22 13:52:00,83.3,54.3,29.67,South,175,8.0,9.0,37,0.00,,,0.00,WeatherCatV1.21B27,2013-09-22 18:52:00,
2013-09-22 13:57:00,83.3,55.0,29.67,ESE,108,2.0,7.0,38,0.00,,,0.00,WeatherCatV1.21B27,2013-09-22 18:57:00,
2013-09-22 14:02:00,83.7,55.4,29.67,South,173,2.0,7.0,38,0.00,,,0.00,WeatherCatV1.21B27,2013-09-22 19:02:00,
2013-09-22 14:07:00,83.9,54.8,29.67,SE,139,8.0,13.0,37,0.00,,,0.00,WeatherCatV1.21B27,2013-09-22 19:07:00,
2013-09-22 14:12:00,83.9,54.8,29.67,SE,140,8.0,11.0,37,0.00,,,0.00,WeatherCatV1.21B27,2013-09-22 19:12:00,
2013-09-22 14:17:00,84.0,54.1,29.67,ESE,121,8.0,10.0,36,0.00,,,0.00,WeatherCatV1.21B27,2013-09-22 19:17:00,
2013-09-22 14:22:00,83.9,54.0,29.67,East,99,5.0,11.0,36,0.00,,,0.00,WeatherCatV1.21B27,2013-09-22 19:22:00,
2013-09-22 14:27:00,84.1,54.2,29.66,ESE,113,5.0,12.0,36,0.00,,,0.00,WeatherCatV1.21B27,2013-09-22 19:27:00,
2013-09-22 14:32:00,84.3,53.6,29.66,ESE,107,9.0,12.0,35,0.00,,,0.00,WeatherCatV1.21B27,2013-09-22 19:32:00,
2013-09-22 14:37:00,84.0,53.4,29.66,ESE,118,5.0,10.0,35,0.00,,,0.00,WeatherCatV1.21B27,2013-09-22 19:37:00,
2013-09-22 14:42:00,84.2,54.3,29.66,East,95,13.0,13.0,36,0.00,,,0.00,WeatherCatV1.21B27,2013-09-22 19:42:00,
2013-09-22 14:47:00,84.1,53.5,29.66,ESE,104,6.0,8.0,35,0.00,,,0.00,WeatherCatV1.21B27,2013-09-22 19:47:00,
2013-09-22 14:52:00,83.9,53.3,29.66,East,84,5.0,12.0,35,0.00,,,0.00,WeatherCatV1.21B27,2013-09-22 19:52:00,
2013-09-22 14:57:00,83.7,53.9,29.66,South,174,4.0,12.0,36,0.00,,,0.00,WeatherCatV1.21B27,2013-09-22 19:57:00,
2013-09-22 15:02:00,83.8,54.0,29.66,SSE,154,5.0,5.0,36,0.00,,,0.00,WeatherCatV1.21B27,2013-09-22 20:02:00,
2013-09-22 15:07:00,83.8,54.0,29.66,ESE,121,2.0,7.0,36,0.00,,,0.00,WeatherCatV1.21B27,2013-09-22 20:07:00,
2013-09-22 15:12:00,83.7,53.9,29.66,SE,130,6.0,12.0,36,0.00,,,0.00,WeatherCatV1.21B27,2013-09-22 20:12:00,
2013-09-22 15:17:00,83.7,53.9,29.65,South,178,3.0,7.0,36,0.00,,,0.00,WeatherCatV1.21B27,2013-09-22 20:17:00,
2013-09-22 15:22:00,83.8,54.0,29.65,SE,131,6.0,9.0,36,0.00,,,0.00,WeatherCatV1.21B27,2013-09-22 20:22:00,
2013-09-22 15:27:00,83.7,54.6,29.65,SE,130,8.0,11.0,37,0.00,,,0.00,WeatherCatV1.21B27,2013-09-22 20:27:00,
2013-09-22 15:32:00,83.8,54.0,29.65,ESE,122,4.0,7.0,36,0.00,,,0.00,WeatherCatV1.21B27,2013-09-22 20:32:00,
2013-09-22 15:37:00,84.1,54.2,29.65,South,185,3.0,10.0,36,0.00,,,0.00,WeatherCatV1.21B27,2013-09-22 20:37:00,
2013-09-22 15:42:00,84.1,54.2,29.65,SE,135,5.0,11.0,36,0.00,,,0.00,WeatherCatV1.21B27,2013-09-22 20:42:00,
2013-09-22 15:47:00,83.9,54.0,29.64,ESE,108,5.0,14.0,36,0.00,,,0.00,WeatherCatV1.21B27,2013-09-22 20:47:00,
2013-09-22 15:52:00,83.8,54.7,29.64,SE,126,3.0,9.0,37,0.00,,,0.00,WeatherCatV1.21B27,2013-09-22 20:52:00,
2013-09-22 15:57:00,83.7,54.6,29.64,ESE,114,3.0,8.0,37,0.00,,,0.00,WeatherCatV1.21B27,2013-09-22 20:57:00,
2013-09-22 16:02:00,83.8,54.7,29.64,SSW,202,1.0,11.0,37,0.00,,,0.00,WeatherCatV1.21B27,2013-09-22 21:02:00,
2013-09-22 16:07:00,84.0,54.1,29.64,ESE,108,3.0,5.0,36,0.00,,,0.00,WeatherCatV1.21B27,2013-09-22 21:07:00,
2013-09-22 16:12:00,83.8,54.0,29.64,ESE,108,5.0,7.0,36,0.00,,,0.00,WeatherCatV1.21B27,2013-09-22 21:12:00,
2013-09-22 16:17:00,83.6,53.8,29.64,South,171,6.0,8.0,36,0.00,,,0.00,WeatherCatV1.21B27,2013-09-22 21:17:00,
2013-09-22 16:22:00,83.4,53.6,29.63,ESE,113,4.0,12.0,36,0.00,,,0.00,WeatherCatV1.21B27,2013-09-22 21:22:00,
2013-09-22 16:27:00,83.4,53.6,29.64,SE,143,6.0,13.0,36,0.00,,,0.00,WeatherCatV1.21B27,2013-09-22 21:27:00,
2013-09-22 16:32:00,83.4,53.6,29.64,SE,124,4.0,10.0,36,0.00,,,0.00,WeatherCatV1.21B27,2013-09-22 21:32:00,
2013-09-22 16:37:00,83.2,53.4,29.64,SSE,153,8.0,12.0,36,0.00,,,0.00,WeatherCatV1.21B27,2013-09-22 21:37:00,
2013-09-22 16:42:00,83.0,53.3,29.63,ESE,114,13.0,13.0,36,0.00,,,0.00,WeatherCatV1.21B27,2013-09-22 21:42:00,
2013-09-22 16:47:00,82.9,53.2,29.63,ESE,120,5.0,11.0,36,0.00,,,0.00,WeatherCatV1.21B27,2013-09-22 21:47:00,
2013-09-22 16:52:00,83.0,53.3,29.63,ESE,117,4.0,5.0,36,0.00,,,0.00,WeatherCatV1.21B27,2013-09-22 21:52:00,
2013-09-22 16:57:00,83.1,53.3,29.63,ESE,108,4.0,14.0,36,0.00,,,0.00,WeatherCatV1.21B27,2013-09-22 21:57:00,
2013-09-22 17:02:00,83.1,53.3,29.63,SSE,153,2.0,8.0,36,0.00,,,0.00,WeatherCatV1.21B27,2013-09-22 22:02:00,
2013-09-22 17:07:00,82.7,53.0,29.63,ESE,116,7.0,14.0,36,0.00,,,0.00,WeatherCatV1.21B27,2013-09-22 22:07:00,
2013-09-22 17:12:00,82.4,52.7,29.63,ESE,120,5.0,11.0,36,0.00,,,0.00,WeatherCatV1.21B27,2013-09-22 22:12:00,
2013-09-22 17:17:00,82.1,52.5,29.63,SSE,155,5.0,16.0,36,0.00,,,0.00,WeatherCatV1.21B27,2013-09-22 22:17:00,
2013-09-22 17:22:00,81.9,53.0,29.63,SE,124,4.0,13.0,37,0.00,,,0.00,WeatherCatV1.21B27,2013-09-22 22:22:00,
2013-09-22 17:27:00,81.8,53.0,29.63,ESE,113,5.0,16.0,37,0.00,,,0.00,WeatherCatV1.21B27,2013-09-22 22:27:00,
2013-09-22 17:32:00,81.5,52.7,29.63,SSE,168,5.0,7.0,37,0.00,,,0.00,WeatherCatV1.21B27,2013-09-22 22:32:00,
2013-09-22 17:37:00,81.3,52.5,29.63,SE,128,5.0,15.0,37,0.00,,,0.00,WeatherCatV1.21B27,2013-09-22 22:37:00,
2013-09-22 17:42:00,81.1,53.1,29.63,ESE,118,1.0,8.0,38,0.00,,,0.00,WeatherCatV1.21B27,2013-09-22 22:42:00,
2013-09-22 17:47:00,80.9,52.9,29.63,SE,124,4.0,6.0,38,0.00,,,0.00,WeatherCatV1.21B27,2013-09-22 22:47:00,
2013-09-22 17:52:00,80.6,52.6,29.63,ESE,119,4.0,12.0,38,0.00,,,0.00,WeatherCatV1.21B27,2013-09-22 22:52:00,
2013-09-22 17:57:00,80.3,52.3,29.63,ESE,122,0.0,8.0,38,0.00,,,0.00,WeatherCatV1.21B27,2013-09-22 22:57:00,
2013-09-22 18:02:00,80.1,52.9,29.63,ESE,105,1.0,9.0,39,0.00,,,0.00,WeatherCatV1.21B27,2013-09-22 23:02:00,
2013-09-22 18:07:00,79.8,52.6,29.63,SE,135,5.0,7.0,39,0.00,,,0.00,WeatherCatV1.21B27,2013-09-22 23:07:00,
2013-09-22 18:12:00,79.6,52.4,29.64,SE,127,7.0,9.0,39,0.00,,,0.00,WeatherCatV1.21B27,2013-09-22 23:12:00,
2013-09-22 18:17:00,79.4,53.0,29.64,ESE,111,8.0,12.0,40,0.00,,,0.00,WeatherCatV1.21B27,2013-09-22 23:17:00,
2013-09-22 18:22:00,79.1,52.7,29.64,East,100,5.0,10.0,40,0.00,,,0.00,WeatherCatV1.21B27,2013-09-22 23:22:00,
2013-09-22 18:27:00,78.9,53.2,29.64,SE,127,3.0,7.0,41,0.00,,,0.00,WeatherCatV1.21B27,2013-09-22 23:27:00,
2013-09-22 18:32:00,78.7,53.0,29.64,SE,139,5.0,8.0,41,0.00,,,0.00,WeatherCatV1.21B27,2013-09-22 23:32:00,
2013-09-22 18:37:00,78.4,53.4,29.64,ESE,123,3.0,5.0,42,0.00,,,0.00,WeatherCatV1.21B27,2013-09-22 23:37:00,
2013-09-22 18:42:00,78.1,53.1,29.64,SE,128,0.0,9.0,42,0.00,,,0.00,WeatherCatV1.21B27,2013-09-22 23:42:00,
2013-09-22 18:47:00,77.8,52.8,29.64,SE,124,8.0,8.0,42,0.00,,,0.00,WeatherCatV1.21B27,2013-09-22 23:47:00,
2013-09-22 18:52:00,77.6,53.3,29.64,ESE,116,4.0,4.0,43,0.00,,,0.00,WeatherCatV1.21B27,2013-09-22 23:52:00,
2013-09-22 18:57:00,77.3,53.0,29.64,SE,136,0.0,10.0,43,0.00,,,0.00,WeatherCatV1.21B27,2013-09-22 23:57:00,
2013-09-22 19:02:00,77.0,52.8,29.64,SE,135,3.0,9.0,43,0.00,,,0.00,WeatherCatV1.21B27,2013-09-23 00:02:00,
2013-09-22 19:07:00,76.7,53.1,29.65,SSW,210,3.0,8.0,44,0.00,,,0.00,WeatherCatV1.21B27,2013-09-23 00:07:00,
2013-09-22 19:12:00,76.4,52.8,29.65,SE,129,0.0,8.0,44,0.00,,,0.00,WeatherCatV1.21B27,2013-09-23 00:12:00,
2013-09-22 19:17:00,76.1,53.2,29.65,SE,142,2.0,5.0,45,0.00,,,0.00,WeatherCatV1.21B27,2013-09-23 00:17:00,
2013-09-22 19:22:00,75.7,53.4,29.64,SSE,166,2.0,12.0,46,0.00,,,0.00,WeatherCatV1.21B27,2013-09-23 00:22:00,
2013-09-22 19:27:00,75.4,53.2,29.65,ESE,117,3.0,7.0,46,0.00,,,0.00,WeatherCatV1.21B27,2013-09-23 00:27:00,
2013-09-22 19:32:00,75.1,52.9,29.65,SE,133,1.0,4.0,46,0.00,,,0.00,WeatherCatV1.21B27,2013-09-23 00:32:00,
2013-09-22 19:37:00,74.7,53.1,29.65,SE,126,3.0,5.0,47,0.00,,,0.00,WeatherCatV1.21B27,2013-09-23 00:37:00,
2013-09-22 19:42:00,74.3,53.3,29.65,SE,138,0.0,2.0,48,0.00,,,0.00,WeatherCatV1.21B27,2013-09-23 00:42:00,
2013-09-22 19:47:00,73.9,53.0,29.65,ESE,116,1.0,11.0,48,0.00,,,0.00,WeatherCatV1.21B27,2013-09-23 00:47:00,
2013-09-22 19:52:00,73.7,52.8,29.65,SE,145,1.0,10.0,48,0.00,,,0.00,WeatherCatV1.21B27,2013-09-23 00:52:00,
2013-09-22 19:57:00,73.4,52.5,29.65,SE,127,2.0,3.0,48,0.00,,,0.00,WeatherCatV1.21B27,2013-09-23 00:57:00,
2013-09-22 20:02:00,73.1,52.2,29.65,SSE,154,1.0,6.0,48,0.00,,,0.00,WeatherCatV1.21B27,2013-09-23 01:02:00,
2013-09-22 20:07:00,72.8,52.5,29.66,ESE,120,8.0,10.0,49,0.00,,,0.00,WeatherCatV1.21B27,2013-09-23 01:07:00,
2013-09-22 20:12:00,72.5,52.2,29.66,SSE,160,3.0,9.0,49,0.00,,,0.00,WeatherCatV1.21B27,2013-09-23 01:12:00,
2013-09-22 20:17:00,72.3,52.0,29.66,SE,132,9.0,9.0,49,0.00,,,0.00,WeatherCatV1.21B27,2013-09-23 01:17:00,
2013-09-22 20:22:00,72.0,52.3,29.66,ESE,123,2.0,8.0,50,0.00,,,0.00,WeatherCatV1.21B27,2013-09-23 01:22:00,
2013-09-22 20:27:00,71.8,53.2,29.66,ESE,122,3.0,3.0,52,0.00,,,0.00,WeatherCatV1.21B27,2013-09-23 01:27:00,
2013-09-22 20:32:00,71.6,53.0,29.66,SE,137,0.0,4.0,52,0.00,,,0.00,WeatherCatV1.21B27,2013-09-23 01:32:00,
2013-09-22 20:37:00,71.4,53.4,29.66,ESE,108,4.0,7.0,53,0.00,,,0.00,WeatherCatV1.21B27,2013-09-23 01:37:00,
2013-09-22 20:42:00,71.2,53.2,29.66,SE,143,2.0,9.0,53,0.00,,,0.00,WeatherCatV1.21B27,2013-09-23 01:42:00,
2013-09-22 20:47:00,71.0,53.5,29.67,ESE,120,1.0,11.0,54,0.00,,,0.00,WeatherCatV1.21B27,2013-09-23 01:47:00,
2013-09-22 20:52:00,70.8,53.8,29.67,SSE,155,2.0,8.0,55,0.00,,,0.00,WeatherCatV1.21B27,2013-09-23 01:52:00,
2013-09-22 20:57:00,70.6,53.6,29.67,SE,143,2.0,6.0,55,0.00,,,0.00,WeatherCatV1.21B27,2013-09-23 01:57:00,
2013-09-22 21:02:00,70.5,53.5,29.67,ESE,120,3.0,9.0,55,0.00,,,0.00,WeatherCatV1.21B27,2013-09-23 02:02:00,
2013-09-22 21:07:00,70.4,53.5,29.67,SE,128,1.0,8.0,55,0.00,,,0.00,WeatherCatV1.21B27,2013-09-23 02:07:00,
2013-09-22 21:12:00,70.1,53.2,29.67,ESE,120,5.0,7.0,55,0.00,,,0.00,WeatherCatV1.21B27,2013-09-23 02:12:00,
2013-09-22 21:17:00,69.9,53.5,29.67,SE,129,0.0,9.0,56,0.00,,,0.00,WeatherCatV1.21B27,2013-09-23 02:17:00,
2013-09-22 21:22:00,69.7,53.3,29.67,SE,137,3.0,8.0,56,0.00,,,0.00,WeatherCatV1.21B27,2013-09-23 02:22:00,
2013-09-22 21:27:00,69.5,53.1,29.67,ESE,106,6.0,13.0,56,0.00,,,0.00,WeatherCatV1.21B27,2013-09-23 02:27:00,
2013-09-22 21:32:00,69.3,53.4,29.67,ESE,120,0.0,6.0,57,0.00,,,0.00,WeatherCatV1.21B27,2013-09-23 02:32:00,
2013-09-22 21:37:00,69.1,53.2,29.67,ESE,117,3.0,9.0,57,0.00,,,0.00,WeatherCatV1.21B27,2013-09-23 02:37:00,
2013-09-22 21:42:00,69.0,53.1,29.67,ESE,117,1.0,11.0,57,0.00,,,0.00,WeatherCatV1.21B27,2013-09-23 02:42:00,
2013-09-22 21:45:00,68.9,53.0,29.67,SE,130,5.0,11.0,57,0.00,,,0.00,WeatherCatV1.21B27,2013-09-23 02:45:00,
2013-09-22 21:50:00,68.9,53.0,29.67,ESE,112,4.0,11.0,57,0.00,,,0.00,WeatherCatV1.21B27,2013-09-23 02:50:00,
2013-09-22 21:55:00,68.7,52.8,29.67,ESE,112,4.0,16.0,57,0.00,,,0.00,WeatherCatV1.21B27,2013-09-23 02:55:00,
2013-09-22 22:00:00,68.6,52.8,29.67,SE,135,5.0,11.0,57,0.00,,,0.00,WeatherCatV1.21B27,2013-09-23 03:00:00,
2013-09-22 22:05:00,68.4,52.6,29.67,SE,135,5.0,13.0,57,0.00,,,0.00,WeatherCatV1.21B27,2013-09-23 03:05:00,
2013-09-22 22:18:00,68.4,52.6,29.67,SE,135,5.0,12.0,57,0.00,,,0.00,WeatherCatV1.21B27,2013-09-23 03:18:00,
2013-09-22 22:23:00,67.9,52.6,29.67,ESE,118,2.0,5.0,58,0.00,,,0.00,WeatherCatV1.21B27,2013-09-23 03:23:00,
2013-09-22 22:28:00,67.7,52.4,29.68,ESE,120,5.0,9.0,58,0.00,,,0.00,WeatherCatV1.21B27,2013-09-23 03:28:00,
2013-09-22 22:33:00,67.5,52.7,29.68,SE,136,4.0,8.0,59,0.00,,,0.00,WeatherCatV1.21B27,2013-09-23 03:33:00,
2013-09-22 22:38:00,67.3,52.5,29.68,SE,145,3.0,10.0,59,0.00,,,0.00,WeatherCatV1.21B27,2013-09-23 03:38:00,
2013-09-22 22:43:00,67.1,52.7,29.68,ESE,122,3.0,16.0,60,0.00,,,0.00,WeatherCatV1.21B27,2013-09-23 03:43:00,
2013-09-22 22:48:00,66.9,52.5,29.68,ESE,116,4.0,9.0,60,0.00,,,0.00,WeatherCatV1.21B27,2013-09-23 03:48:00,
2013-09-22 22:54:00,66.8,52.5,29.68,ESE,117,2.0,5.0,60,0.00,,,0.00,WeatherCatV1.21B27,2013-09-23 03:54:00,
2013-09-22 22:59:00,66.7,52.8,29.68,SE,124,5.0,9.0,61,0.00,,,0.00,WeatherCatV1.21B27,2013-09-23 03:59:00,
2013-09-22 23:01:00,66.6,52.7,29.69,SE,135,0.0,8.0,61,0.00,,,0.00,WeatherCatV1.21B27,2013-09-23 04:01:00,
2013-09-22 23:02:00,66.6,52.7,29.69,ESE,112,8.0,11.0,61,0.00,,,0.00,WeatherCatV1.21B27,2013-09-23 04:02:00,
2013-09-22 23:07:00,66.5,53.1,29.69,ESE,121,2.0,10.0,62,0.00,,,0.00,WeatherCatV1.21B27,2013-09-23 04:07:00,
2013-09-22 23:12:00,66.3,52.9,29.68,SE,125,4.0,7.0,62,0.00,,,0.00,WeatherCatV1.21B27,2013-09-23 04:12:00,
2013-09-22 23:17:00,66.3,52.9,29.68,ESE,117,4.0,9.0,62,0.00,,,0.00,WeatherCatV1.21B27,2013-09-23 04:17:00,
2013-09-22 23:22:00,66.2,53.2,29.69,ESE,113,1.0,8.0,63,0.00,,,0.00,WeatherCatV1.21B27,2013-09-23 04:22:00,
2013-09-22 23:27:00,66.1,53.1,29.69,SE,125,0.0,5.0,63,0.00,,,0.00,WeatherCatV1.21B27,2013-09-23 04:27:00,
2013-09-22 23:32:00,66.1,53.1,29.69,SE,129,1.0,5.0,63,0.00,,,0.00,WeatherCatV1.21B27,2013-09-23 04:32:00,
2013-09-22 23:37:00,65.9,52.9,29.69,SE,131,11.0,11.0,63,0.00,,,0.00,WeatherCatV1.21B27,2013-09-23 04:37:00,
2013-09-22 23:42:00,65.8,52.8,29.69,SE,136,8.0,9.0,63,0.00,,,0.00,WeatherCatV1.21B27,2013-09-23 04:42:00,
2013-09-22 23:47:00,65.7,53.2,29.69,SE,134,1.0,14.0,64,0.00,,,0.00,WeatherCatV1.21B27,2013-09-23 04:47:00,
2013-09-22 23:52:00,65.6,53.1,29.69,SSE,160,3.0,10.0,64,0.00,,,0.00,WeatherCatV1.21B27,2013-09-23 04:52:00,
2013-09-22 23:57:00,65.4,52.9,29.69,ESE,106,5.0,8.0,64,0.00,,,0.00,WeatherCatV1.21B27,2013-09-23 04:57:00,